{"data":{"norad_id":43880,"intl_designator":"2018-111E","name":"UWE-4","alt_names":[],"object_type":"PAYLOAD","status":"ACTIVE","operator":null,"country":"GER","launch_date":"2018-12-27","launch_site_code":"VOSTO","launch_vehicle":null,"mission":null,"orbit_class":"UNKNOWN","rcs_meters":null,"size_class":null,"mass_kg":null,"dimensions":null,"purposes":["comms"],"wikipedia_slug":null,"has_3d_model":false,"image_url":null,"decayed_at":null,"tle_current":{"epoch":"2026-09-17T18:58:16.773024Z","epoch_age_seconds":248506,"freshness":"STALE","line1":"1 43880U 18111E   26260.79047191  .00032620  00000+0  54348-3 0  9998","line2":"2 43880  97.5815 193.8360 0006557  15.6860 344.4594 15.51924947425112","mean_motion":15.51924947,"eccentricity":0.0006557,"inclination_deg":97.5815,"raan_deg":193.836,"arg_perigee_deg":15.686,"mean_anomaly_deg":344.4594,"bstar":0.00054348,"rev_number":42511,"period_min":92.787992279114,"perigee_km":406.65447870117,"apogee_km":415.55789221458,"semimajor_km":6789.2431854579,"source":"CELESTRAK","updated_at":"2026-09-20T09:00:45.235815Z"}}}